TimeEST,TemperatureF,Dew PointF,Humidity,Sea Level PressureIn,VisibilityMPH,Wind Direction,Wind SpeedMPH,Gust SpeedMPH,PrecipitationIn,Events,Conditions,WindDirDegrees,DateUTC
12:56 AM,44.1,36.0,73,30.15,8.0,West,9.2,-,N/A,,Clear,260,2013-01-10 05:56:00
1:56 AM,43.0,35.1,74,30.17,8.0,West,10.4,-,N/A,,Clear,260,2013-01-10 06:56:00
2:56 AM,43.0,33.1,68,30.21,9.0,West,11.5,-,N/A,,Partly Cloudy,270,2013-01-10 07:56:00
3:56 AM,42.1,26.1,53,30.23,10.0,WNW,9.2,-,N/A,,Clear,290,2013-01-10 08:56:00
4:56 AM,42.1,24.1,49,30.26,10.0,WNW,9.2,-,N/A,,Clear,300,2013-01-10 09:56:00
5:56 AM,39.9,25.0,55,30.30,10.0,NW,8.1,-,N/A,,Clear,310,2013-01-10 10:56:00
6:56 AM,39.9,23.0,51,30.34,10.0,WNW,10.4,-,N/A,,Clear,290,2013-01-10 11:56:00
7:56 AM,39.9,23.0,51,30.38,10.0,West,9.2,-,N/A,,Clear,280,2013-01-10 12:56:00
8:56 AM,42.1,24.1,49,30.40,10.0,West,11.5,-,N/A,,Clear,280,2013-01-10 13:56:00
9:56 AM,43.0,24.1,47,30.42,10.0,NW,12.7,25.3,N/A,,Clear,310,2013-01-10 14:56:00
10:56 AM,44.1,24.1,45,30.40,10.0,WNW,15.0,21.9,N/A,,Clear,290,2013-01-10 15:56:00
11:56 AM,46.0,24.1,42,30.38,10.0,NW,17.3,21.9,N/A,,Clear,320,2013-01-10 16:56:00
12:56 PM,46.9,23.0,39,30.37,10.0,NW,17.3,23.0,N/A,,Clear,320,2013-01-10 17:56:00
1:56 PM,48.0,23.0,37,30.38,10.0,NNW,16.1,24.2,N/A,,Clear,330,2013-01-10 18:56:00
2:56 PM,46.9,21.9,37,30.40,10.0,NW,17.3,24.2,N/A,,Clear,320,2013-01-10 19:56:00
3:56 PM,46.0,21.9,39,30.43,10.0,NNW,13.8,20.7,N/A,,Clear,330,2013-01-10 20:56:00
4:56 PM,42.1,21.9,45,30.45,10.0,NW,6.9,-,N/A,,Clear,320,2013-01-10 21:56:00
5:56 PM,39.9,23.0,51,30.48,10.0,WNW,5.8,-,N/A,,Clear,300,2013-01-10 22:56:00
6:56 PM,37.0,24.1,59,30.49,10.0,WNW,6.9,-,N/A,,Clear,300,2013-01-10 23:56:00
7:56 PM,33.1,24.1,70,30.52,10.0,Calm,Calm,-,N/A,,Clear,0,2013-01-11 00:56:00
8:56 PM,34.0,23.0,64,30.53,10.0,NW,3.5,-,N/A,,Clear,310,2013-01-11 01:56:00
9:56 PM,28.9,24.1,82,30.54,10.0,North,6.9,-,N/A,,Clear,10,2013-01-11 02:56:00
10:56 PM,28.9,24.1,82,30.52,10.0,NNW,3.5,-,N/A,,Clear,330,2013-01-11 03:56:00
11:56 PM,28.4,26.6,93,30.52,10.0,Calm,Calm,-,N/A,,Clear,0,2013-01-11 04:56:00